This is the latest recevied weather packets stored in our database for station/object K8JCL-13. If no packets are shown the sender has not sent any weather packets the latest 1 day(s).
| Time | Temp. | Humidity | Pressure | Rain* | Wind** | Luminosity | Snow |
|---|---|---|---|---|---|---|---|
| 1778054962 | 6.67° C | 99% | 1008.4 hPa | 1.78 mm | - | 0 W/m² | - |
| 1778054659 | 6.67° C | 99% | 1008.4 hPa | 3.56 mm | - | 0 W/m² | - |
| 1778054357 | 6.67° C | 99% | 1008.5 hPa | 3.05 mm | - | 0 W/m² | - |
| 1778053751 | 6.67° C | 99% | 1008.5 hPa | 1.78 mm | - | 0 W/m² | - |
| 1778052540 | 6.67° C | 99% | 1008.6 hPa | 3.05 mm | - | 0 W/m² | - |
| 1778051935 | 6.67° C | 99% | 1008.6 hPa | 1.78 mm | - | 0 W/m² | - |
| 1778051633 | 6.67° C | 99% | 1008.7 hPa | 1.78 mm | - | 0 W/m² | - |
| 1778050118 | 7.22° C | 99% | 1008 hPa | 1.27 mm | - | 0 W/m² | - |
| 1778049813 | 7.22° C | 99% | 1008 hPa | 1.27 mm | - | 0 W/m² | - |
| 1778049208 | 7.78° C | 99% | 1008.1 hPa | 1.78 mm | - | 0 W/m² | - |
| 1778048300 | 7.78° C | 99% | 1007.9 hPa | 3.05 mm | - | 0 W/m² | - |
| 1778047695 | 7.78° C | 99% | 1007.7 hPa | 3.05 mm | - | 0 W/m² | - |
| 1778047393 | 7.78° C | 99% | 1007.6 hPa | 1.78 mm | - | 0 W/m² | - |
| 1778047089 | 7.78° C | 99% | 1007.9 hPa | 1.78 mm | - | 0 W/m² | - |
| 1778046786 | 7.78° C | 99% | 1007.8 hPa | 1.78 mm | - | 0 W/m² | - |
| 1778046483 | 7.78° C | 99% | 1008 hPa | 1.27 mm | - | 0 W/m² | - |
| 1778045876 | 7.78° C | 99% | 1008.1 hPa | 3.05 mm | - | 0 W/m² | - |
| 1778045575 | 7.78° C | 99% | 1008 hPa | 3.05 mm | - | 0 W/m² | - |
| 1778044971 | 8.33° C | 99% | 1008.5 hPa | 4.83 mm | - | 0 W/m² | - |
| 1778044668 | 8.33° C | 99% | 1008.5 hPa | 6.1 mm | - | 0 W/m² | - |
| 1778044364 | 8.33° C | 99% | 1008.5 hPa | 4.32 mm | - | 0 W/m² | - |
| 1778044062 | 8.33° C | 99% | 1008.4 hPa | 3.05 mm | - | 0 W/m² | - |
| 1778043759 | 8.33° C | 99% | 1008.3 hPa | 3.05 mm | - | 0 W/m² | - |
| 1778043455 | 8.33° C | 99% | 1008 hPa | 3.05 mm | - | 0 W/m² | - |
| 1778043152 | 8.33° C | 99% | 1008 hPa | 3.56 mm | - | 0 W/m² | - |
* Rain latest hour (hover to see other rain measurements)
** Current wind speed in m/s (hover to see current wind gust speed)